Torna al catalogo

STARLINK-37830

AttivoComunicazioniSSO
NORAD 69664·PAYLOAD·🇺🇸 United States

Lanciato Jun 21, 2026 da Vandenberg Space Force Base

Loading…

Prossimi Passaggi (prossime 24 ore)

TLE

AggiornatoSource: CelesTrak SupGP

Epoca: Sep 15, 2026, 04:30 UTC

1 69664C 26143R   26258.18798611 -.00050881  00000+0 -15796-2 0  2582
2 69664  97.2840 301.3908 0001132  90.8299 294.6160 15.33461762    18

Traccia STARLINK-37830 in tempo reale con AllMySat

Download on the App Store